Regional Weather Roundup
Issued by NWS Charleston, SC

Current Version | Previous Version | Graphics & Text | Print | Product List | Glossary On
Versions: 1 2 3 4 5 6 7 8 9 10 11 12 13 14 15 16 17 18 19 20 21 22 23 24 25 26 27 28 29 30 31 32 33 34 35 36 37 38 39 40 41 42 43 44 45 46 47 48 49 50
000
ASUS42 KCHS 291412
RWRCHS

REGIONAL WEATHER ROUNDUP
NATIONAL WEATHER SERVICE CHARLESTON SC
1000 AM EDT FRI MAY 29 2015

NOTE: "FAIR" INDICATES FEW OR NO CLOUDS BELOW 12,000 FEET WITH NO
SIGNIFICANT WEATHER AND/OR OBSTRUCTIONS TO VISIBILITY.

NOT ALL STATIONS ARE QUALITY CONTROLLED BY THE NATIONAL
WEATHER SERVICE. USE DATA WITH CAUTION...ESPECIALLY
DEWPOINT OBSERVATIONS.

SCZ027-030-031-034>040-042>050-291500-
...SOUTHEAST SOUTH CAROLINA...

CITY           SKY/WX    TMP DP  RH WIND       PRES   REMARKS
N CHARLESTON   MOSUNNY   80  65  59 NE9       30.22R
WATERFRONT PAR   N/A     78  68  71 NE7       30.19R
MOUNT PLEASANT FAIR      79  66  65 NE5       30.22S
JOHNS ISLAND   MOSUNNY   79  66  65 NE6       30.21S
PINOPOLIS        N/A     77  66  69 NE5       30.14
MONCKS CORNER  FAIR      79  64  61 E7        30.22S
SUMMERVILLE    FAIR      79  66  65 NE6       30.23S
BEAUFORT MCAS  MOSUNNY   79  64  60 E7        30.21R
BEAUFORT ARPT  FAIR      79  68  69 NE7       30.20S
HILTON HEAD IS MOSUNNY   77  63  61 NE8       30.22R
WALTERBORO     SUNNY     77  63  61 NE8       30.23S
ALLENDALE      FAIR      77  64  65 VRB5      30.22S

...SOUTHERN MIDLANDS AND PEE DEE...

CITY           SKY/WX    TMP DP  RH WIND       PRES   REMARKS
GEORGETOWN     NOT AVBL
KINGSTREE      NOT AVBL
ORANGEBURG     SUNNY     77  62  59 E7        30.24R
BARNWELL       FAIR      75  66  73 E6        30.24S
AIKEN          FAIR      73  59  60 SE5       30.28S
MANNING        FAIR      75  61  60 NE5       30.24R
COLUMBIA       MOSUNNY   78  62  57 VRB3      30.24R
SUMTER         SUNNY     77  63  61 VRB1      30.23R
FLORENCE       SUNNY     78  63  59 VRB3      30.24S
MYRTLE BEACH   MOSUNNY   79  64  61 NE9       30.25S
N MYRTLE BEACH SUNNY     79  65  62 NE7       30.23S

$$

GAZ063-065-086>088-099>101-113>116-118-119-134>141-150-291500-
...SOUTHEAST GEORGIA...

CITY           SKY/WX    TMP DP  RH WIND       PRES   REMARKS
SAVANNAH ARPT  MOSUNNY   79  61  53 NE10      30.21R
HUNTER AAF     MOSUNNY   81  64  57 E8        30.18R
FORT STEWART   MOSUNNY   80  63  56 E7        30.18R
STATESBORO     MOSUNNY   77  67  72 SE5       30.22R
SYLVANIA       SUNNY     79  67  66 E6        30.23R
CLAXTON        FAIR      79  66  65 NE6       30.21S

...CSRA...CENTRAL AND FAR SOUTHEAST GEORGIA...

CITY           SKY/WX    TMP DP  RH WIND       PRES   REMARKS
THOMSON        MOSUNNY   77  69  78 CALM      30.29S
AUGUSTA-BUSH   MOSUNNY   77  64  64 VRB3      30.23R
AUGUSTA-DANIEL SUNNY     77  63  61 VRB3      30.24S
SWAINSBORO     FAIR      79  68  69 CALM      30.22F
VIDALIA        SUNNY     77  66  69 E7        30.21S
EASTMAN        FAIR      77  67  71 SE6       30.23S
HAZLEHURST     FAIR      78  68  71 E5        30.19S
ALMA           SUNNY     78  64  61 VRB3      30.19R
WAYCROSS       SUNNY     79  68  68 E6        30.18S
JESUP          FAIR      82  68  61 SE7       30.19R
BAXLEY         FAIR      79  66  65 E3        30.19S
BRUNSWICK        N/A     81  61  50 E13       30.18S
SAINT SIMONS   NOT AVBL

$$

SCZ027-028-034-036>038-045-046-048>050-GAZ119-141-291500-
...LAKE AND SUPPLEMENTAL COASTAL OBSERVATIONS...

STATION/POSITION TIME  TEMP    WIND        PRES    WAVE   SWELL
                       AIR SEA DIR/SP/G            HT/PER HT/PER/DIR
                 (UTC) (F)     (DEG/KT/KT) (MB)    (FT/S) (FT/S/D)
UPR LAKE MARION  NOT AVBL
WINYAH BAY       NOT AVBL
LAKE MURRAY      1300   74     150/  3/  5 1023.4R
ACE BASIN NERRS  NOT AVBL
FORT PULASKI     1300   76 79   60/ 10/ 12 1022.8R
SAPELO ISLAND    1300   80      70/  7     1022.0R

$$

ANZ835-935-AMZ111-154-330-350-352-354-370-450-454-472-291500-
...C-MAN AND BUOY OBSERVATIONS...

STATION/POSITION TIME  TEMP    WIND        PRES    WAVE   SWELL
                       AIR SEA DIR/SP/G            HT/PER HT/PER/DIR
                 (UTC) (F)     (DEG/KT/KT) (MB)    (FT/S) (FT/S/D)
BUOY 41004       1350   76 78   30/ 12/ 14 1022.4R   4/ 8   3/ 8
BUOY 41008       1350   77 78   60/ 10/ 12 1022.2R   3/ 9   3/100/ 9
FOLLY BEACH CMAN 1400   77      50/ 10/ 11 1023.3R
CAPERS NEARSHORE 1308   76      60/ 10/ 12 1023.1R
FRIPP NEARSHORE  1300   78      80/  8/ 10 1022.4R


STATION/POSITION TIME  TEMP    WIND        PRES    WAVE   SWELL
                       AIR SEA DIR/SP/G            HT/PER HT/PER/DIR
                 (UTC) (F)     (DEG/KT/KT) (MB)    (FT/S) (FT/S/D)
5E ST. MARYS GA  1321      79                N/A     3/10
FRYING PAN BUOY  1350   76 75   50/ 16/ 17 1024.0R   4/ 8   3/130/ 8
BUOY 41025       1350   77 76   90/  8/ 10 1024.3R   3/ 9   3/ 90/ 9
CAPE LOOKOUT NC  1400   74      50/ 10/ 11 1024.3R
BUOY 41002       1350   75 74   80/ 16/ 19 1022.1R   5/ 8   3/ 90/ 8
BUOY 41010       1320   78 81   70/ 12/ 16 1019.6R
ST AUGUSTINE FL  1400   77 78  100/ 10/ 11 1021.7R


$$



USA.gov is the U.S. government's official web portal to all federal, state and local government web resources and services.